FW3054 Weather Reports


Display with metric or nautical units.
time (UTC)temp
F
wind
direction
speed
MPH
gust
MPH
rain 1hr
in
rain 24hr
in
rain mn
in
humidity
%
barometer
mb
20260906205517 75 0.0 1.0 0.02 0.06 0.06 87 1014.9
20260906204517 74 0.0 1.0 0.02 0.06 0.06 86 1014.6
20260906203516 75 0.0 0.0 0.02 0.06 0.06 86 1014.7
20260906202516 76 0.0 2.0 0.02 0.06 0.06 84 1014.8
20260906201516 77 0.0 1.0 0.01 0.05 0.05 79 1015.3
20260906200517 78 45 2.0 6.0 0.00 0.04 0.04 75 1015.3
20260906195516 80 23 1.0 5.0 0.01 0.04 0.04 70 1015.4
20260906194517 81 45 1.0 3.0 0.04 0.04 0.04 73 1014.8
20260906193516 80 0.0 1.0 0.04 0.04 0.04 78 1014.1
20260906192517 78 0.0 0.0 0.04 0.04 0.04 85 1013.9
20260906191517 79 0.0 0.0 0.04 0.04 0.04 80 1013.9
20260906190517 81 0.0 1.0 0.04 0.04 0.04 73 1014.4
20260906185516 86 23 1.0 2.0 0.03 0.03 0.03 64 1014.6
20260906184516 90 0.0 1.0 0.00 0.00 0.00 58 1014.5
20260906183516 88 0.0 1.0 0.00 0.00 0.00 62 1014.7
20260906182536 86 0.0 1.0 0.00 0.00 0.00 65 1014.9
20260906181516 86 0.0 0.0 0.00 0.00 0.00 64 1015.2
20260906180516 86 0.0 1.0 0.00 0.00 0.00 63 1015.2
20260906175536 85 0.0 1.0 0.00 0.00 0.00 66 1015.4
20260906174518 85 0.0 2.0 0.00 0.00 0.00 67 1015.4
20260906173516 86 23 1.0 2.0 0.00 0.00 0.00 61 1015.3
20260906172516 85 0.0 2.0 0.00 0.00 0.00 62 1015.3
20260906171536 84 23 1.0 3.0 0.00 0.00 0.00 67 1015.5
20260906170516 84 0.0 2.0 0.00 0.00 0.00 69 1015.4
20260906165516 84 23 3.0 5.0 0.00 0.00 0.00 70 1015.6
20260906164516 84 0.0 0.0 0.00 0.00 0.00 71 1015.9
20260906163516 84 0.0 2.0 0.00 0.00 0.00 70 1016.0
20260906162516 83 0.0 2.0 0.00 0.00 0.00 71 1016.1
20260906161516 83 0.0 0.0 0.00 0.00 0.00 74 1016.3
20260906160518 83 0.0 1.0 0.00 0.00 0.00 73 1016.5
20260906155516 82 0.0 1.0 0.00 0.00 0.00 76 1016.5
20260906154516 81 0.0 0.0 0.00 0.00 0.00 77 1016.5
20260906153516 81 0.0 2.0 0.00 0.00 0.00 78 1016.5
20260906152516 80 0.0 0.0 0.00 0.00 0.00 80 1016.8
20260906151536 79 0.0 1.0 0.00 0.00 0.00 81 1016.7
20260906150516 78 0.0 1.0 0.00 0.00 0.00 83 1016.7
20260906145516 77 0.0 1.0 0.00 0.00 0.00 85 1016.6
20260906144516 76 0.0 1.0 0.00 0.00 0.00 87 1016.8
20260906143516 75 0.0 0.0 0.00 0.00 0.00 88 1016.8
20260906142516 74 0.0 0.0 0.00 0.00 0.00 90 1016.8
20260906141516 74 0.0 0.0 0.00 0.00 0.00 89 1016.6
20260906140518 73 0.0 1.0 0.00 0.00 0.00 87 1016.7
20260906135516 72 0.0 0.0 0.00 0.00 0.00 86 1016.9
20260906134536 71 0.0 0.0 0.00 0.00 0.00 82 1016.9
20260906133516 71 0.0 0.0 0.00 0.00 0.00 81 1016.8
20260906132516 70 0.0 0.0 0.00 0.00 0.00 80 1016.7
20260906131516 70 0.0 0.0 0.00 0.00 0.00 79 1016.7
20260906130536 70 0.0 0.0 0.00 0.00 0.00 79 1016.4
20260906125536 69 0.0 0.0 0.00 0.00 0.00 78 1016.4
20260906124516 69 0.0 0.0 0.00 0.00 0.00 77 1016.4
20260906123536 69 0.0 0.0 0.00 0.00 0.00 77 1016.3
20260906122516 68 0.0 0.0 0.00 0.00 0.00 77 1016.1
20260906121516 68 0.0 0.0 0.00 0.00 0.00 77 1016.0
20260906120516 68 0.0 1.0 0.00 0.00 0.00 78 1015.8
20260906115516 68 0.0 0.0 0.00 0.00 0.00 80 1015.9
20260906114516 67 0.0 0.0 0.00 0.00 0.00 81 1015.7
20260906113516 68 0.0 0.0 0.00 0.00 0.00 81 1015.6
20260906112515 68 0.0 0.0 0.00 0.00 0.00 81 1015.7
20260906111515 68 0.0 0.0 0.00 0.00 0.00 81 1015.6
20260906110516 68 0.0 0.0 0.00 0.00 0.00 82 1015.5
20260906105536 68 0.0 0.0 0.00 0.00 0.00 81 1015.5
20260906104516 68 0.0 0.0 0.00 0.00 0.00 81 1015.6
20260906103516 68 0.0 0.0 0.00 0.00 0.00 81 1015.4
20260906102515 68 0.0 0.0 0.00 0.00 0.00 82 1015.4
20260906101516 68 0.0 0.0 0.00 0.00 0.00 82 1015.4
20260906100516 68 0.0 0.0 0.00 0.00 0.00 82 1015.5
20260906095515 68 0.0 0.0 0.00 0.00 0.00 82 1015.5
20260906094515 68 0.0 0.0 0.00 0.00 0.00 82 1015.4
20260906093515 69 0.0 0.0 0.00 0.00 0.00 81 1015.4
20260906092516 69 0.0 0.0 0.00 0.00 0.00 81 1015.4
20260906091515 69 0.0 0.0 0.00 0.00 0.00 81 1015.2
20260906090515 69 0.0 0.0 0.00 0.00 0.00 82 1015.4
20260906085515 69 0.0 0.0 0.00 0.00 0.00 82 1015.4
20260906084516 69 0.0 0.0 0.00 0.00 0.00 83 1015.3
20260906083515 69 0.0 0.0 0.00 0.00 0.00 83 1015.2
20260906082515 69 0.0 0.0 0.00 0.00 0.00 83 1014.9
20260906081515 69 0.0 0.0 0.00 0.00 0.00 83 1014.9
20260906080515 69 0.0 0.0 0.00 0.00 0.00 84 1014.8
20260906075515 69 0.0 0.0 0.00 0.00 0.00 84 1014.5
20260906074515 69 0.0 0.0 0.00 0.00 0.00 85 1014.5
20260906073515 69 0.0 0.0 0.00 0.00 0.00 85 1014.6
20260906072515 70 0.0 0.0 0.00 0.00 0.00 85 1014.7
20260906071515 70 0.0 0.0 0.00 0.00 0.00 85 1014.7
20260906070535 70 0.0 0.0 0.00 0.00 0.00 85 1014.7
20260906065515 70 0.0 0.0 0.00 0.00 0.00 85 1014.7
20260906064515 70 0.0 1.0 0.00 0.00 0.00 85 1014.8
20260906063535 70 0.0 0.0 0.00 0.00 0.00 86 1015.0
20260906062515 70 0.0 0.0 0.00 0.00 0.00 86 1015.1
20260906061558 70 0.0 0.0 0.00 0.00 0.00 87 1015.2
20260906060517 71 0.0 0.0 0.00 0.00 0.00 87 1015.5
20260906055515 71 0.0 0.0 0.00 0.00 0.00 88 1016.0
20260906054517 71 0.0 0.0 0.00 0.00 0.00 88 1015.9
20260906053515 71 0.0 0.0 0.00 0.00 0.00 88 1015.9
20260906052517 71 0.0 0.0 0.00 0.00 0.00 89 1016.4
20260906051538 72 0.0 0.0 0.00 0.00 0.00 89 1016.5
20260906050517 72 0.0 0.0 0.00 0.00 0.00 89 1016.6
20260906045517 72 0.0 1.0 0.00 0.00 0.00 89 1016.5
20260906044517 72 0.0 0.0 0.00 0.00 0.00 89 1016.7
20260906043517 72 0.0 0.0 0.00 0.00 0.00 89 1016.7
20260906042517 73 0.0 0.0 0.00 0.00 0.00 89 1016.4
20260906041517 73 0.0 0.0 0.00 0.00 0.00 89 1016.6
20260906040517 73 0.0 1.0 0.00 0.00 0.00 89 1016.6
20260906035515 73 0.0 0.0 0.00 0.00 0.00 89 1016.5
20260906034537 73 0.0 0.0 0.00 0.00 0.00 89 1016.7
20260906033517 73 0.0 0.0 0.00 0.00 0.00 89 1016.9
20260906032517 73 0.0 0.0 0.00 0.00 0.00 89 1016.8
20260906031517 74 0.0 0.0 0.00 0.00 0.00 89 1017.1
20260906030517 74 0.0 0.0 0.00 0.00 0.00 89 1017.1
20260906025517 74 0.0 0.0 0.00 0.00 0.00 89 1016.9
20260906024517 74 0.0 0.0 0.00 0.00 0.00 88 1016.7
20260906023517 74 0.0 0.0 0.00 0.00 0.00 88 1016.7
20260906022517 74 0.0 0.0 0.00 0.00 0.00 88 1016.4
20260906021517 74 0.0 0.0 0.00 0.00 0.00 88 1016.2
20260906020517 74 0.0 0.0 0.00 0.00 0.00 87 1016.1
20260906015517 75 0.0 0.0 0.00 0.00 0.00 86 1015.6
20260906014517 75 0.0 0.0 0.00 0.00 0.00 86 1015.7
20260906013517 76 0.0 0.0 0.00 0.00 0.00 85 1015.7
20260906012517 76 0.0 0.0 0.00 0.00 0.00 85 1015.7
20260906011517 76 0.0 0.0 0.00 0.00 0.00 84 1015.5
20260906010557 76 0.0 0.0 0.00 0.00 0.00 84 1015.3
20260906005517 77 0.0 0.0 0.00 0.00 0.00 84 1015.3
20260906004517 77 0.0 0.0 0.00 0.00 0.00 83 1015.2
20260906003537 77 0.0 0.0 0.00 0.00 0.00 83 1015.1
20260906002537 77 0.0 0.0 0.00 0.00 0.00 83 1014.9
20260906001517 77 0.0 0.0 0.00 0.00 0.00 82 1014.9
20260906000517 78 0.0 0.0 0.00 0.00 0.00 81 1014.9
20260905235517 79 0.0 0.0 0.00 0.00 0.00 80 1014.7
20260905234517 79 0.0 0.0 0.00 0.00 0.00 79 1014.6
20260905233517 80 0.0 0.0 0.00 0.00 0.00 78 1014.8
20260905232517 80 0.0 0.0 0.00 0.00 0.00 77 1014.5
20260905231517 80 0.0 0.0 0.00 0.00 0.00 75 1014.4
20260905230517 81 0.0 0.0 0.00 0.00 0.00 75 1014.5
20260905225516 82 0.0 0.0 0.00 0.00 0.00 74 1014.6
20260905224516 82 0.0 0.0 0.00 0.00 0.00 72 1014.6
20260905223517 83 0.0 1.0 0.00 0.00 0.00 69 1014.6
20260905222516 83 0.0 0.0 0.00 0.00 0.00 69 1014.9
20260905221517 83 0.0 1.0 0.00 0.00 0.00 67 1014.7
20260905220517 83 0.0 1.0 0.00 0.00 0.00 67 1014.7
20260905215537 84 0.0 1.0 0.00 0.00 0.00 67 1014.9
20260905214517 84 0.0 1.0 0.00 0.00 0.00 66 1015.1
20260905213516 84 0.0 2.0 0.00 0.00 0.00 65 1015.2
20260905212517 84 0.0 1.0 0.00 0.00 0.00 66 1015.5
20260905211517 84 0.0 1.0 0.00 0.00 0.00 66 1015.7
20260905210517 84 0.0 1.0 0.00 0.00 0.00 67 1015.7